Regional Weather Roundup
Issued by NWS Raleigh/Durham, NC

Home | Current Version | Previous Version | Text Only | Print | Product List | Glossary On
Versions: 1 2 3 4 5 6 7 8 9 10 11 12 13 14 15 16 17 18 19 20 21 22 23 24 25 26 27 28 29 30 31 32 33 34 35 36 37 38 39 40 41 42 43 44 45 46 47 48 49 50
000
ASUS42 KRAH 251710
RWRRAH
NORTH CAROLINA WEATHER ROUNDUP
NATIONAL WEATHER SERVICE RALEIGH NC
1200 PM EST SAT FEB 25 2017

NOTE: "FAIR" INDICATES FEW OR NO CLOUDS BELOW 12,000 FEET WITH NO
SIGNIFICANT WEATHER AND/OR OBSTRUCTIONS TO VISIBILITY.

NCZ001-053-055-056-065-067-251800-
WESTERN NORTH CAROLINA

CITY           SKY/WX    TMP DP  RH WIND       PRES   REMARKS
ASHEVILLE      MOSUNNY   63  33  32 N13G20    29.73F
JEFFERSON      SUNNY     49  36  60 W15G25    29.71F
MORGANTON      MOSUNNY   67  46  45 W9        29.73F
HICKORY        MOSUNNY   66  49  54 NW12      29.68R
RUTHERFORDTON  MOSUNNY   72  47  41 W10G20    29.69F
MOUNT AIRY     PTSUNNY   67  59  74 W13G20    29.68S
BOONE          SUNNY     50  32  51 NW15G25   29.75S
$$

NCZ021-022-025-041-071-084-088-251800-
CENTRAL NORTH CAROLINA

CITY           SKY/WX    TMP DP  RH WIND       PRES   REMARKS
CHARLOTTE      PTSUNNY   74  56  53 SW17G24   29.68F
GREENSBORO     PTSUNNY   72  57  59 SW15G23   29.63F
WINSTON-SALEM  PTSUNNY   71  55  56 VRB7G22   29.65F
RALEIGH-DURHAM PTSUNNY   77  56  48 SW20G29   29.65F
FORT BRAGG     SUNNY     77  58  52 S13G22    29.68F
FAYETTEVILLE   SUNNY     79  59  50 SW18G28   29.69F
BURLINGTON     MOSUNNY   77  55  46 S18G33    29.62F
LAURINBURG     SUNNY     79  60  52 SW18G25   29.69F
$$

NCZ011-015-027-028-043-044-047-080-103-251800-
NORTHEASTERN NORTH CAROLINA

CITY           SKY/WX    TMP DP  RH WIND       PRES   REMARKS
ROCKY MT-WILSO SUNNY     76  57  51 S13G21    29.68F
GREENVILLE     SUNNY     77  59  53 SW10G20   29.74F
WASHINGTON     SUNNY     76  58  53 SW12      29.71F
ELIZABETH CITY SUNNY     74  60  61 S8        29.70F
MANTEO         SUNNY     71  60  69 S10       29.73F
CAPE HATTERAS  SUNNY     72  61  68 SW7       29.76F HAZE
$$

NCZ078-087-090-091-093-098-101-251800-
SOUTHEASTERN NORTH CAROLINA

CITY           SKY/WX    TMP DP  RH WIND       PRES   REMARKS
LUMBERTON      MOSUNNY   77  61  57 SW14G25   29.70F
GOLDSBORO      SUNNY     76  57  50 SW13G20   29.69F
KINSTON        SUNNY     77  57  50 SW14G20   29.72F
KENANSVILLE    SUNNY     75  57  53 SW6       29.73F
NEW BERN       SUNNY     77  57  50 SW14G22   29.74F
CHERRY POINT   SUNNY     77  60  55 SW14G20   29.75F
BEAUFORT       SUNNY     71  63  75 SW15      29.76F
JACKSONVILLE   NOT AVBL
WILMINGTON     SUNNY     76  58  53 S16G22    29.75F
$$




USA.gov is the U.S. government's official web portal to all federal, state and local government web resources and services.